TimeAKST,TemperatureF,Dew PointF,Humidity,Sea Level PressureIn,VisibilityMPH,Wind Direction,Wind SpeedMPH,Gust SpeedMPH,PrecipitationIn,Events,Conditions,WindDirDegrees,DateUTC
12:53 AM,14.0,-0.0,54,29.37,10.0,NNE,5.8,-,N/A,,Clear,30,2012-12-03 09:53:00
1:53 AM,12.9,-0.9,54,29.39,10.0,NNE,3.5,-,N/A,,Clear,30,2012-12-03 10:53:00
3:53 AM,10.0,-2.0,58,29.40,10.0,NNE,4.6,-,N/A,,Clear,30,2012-12-03 12:53:00
4:53 AM,12.0,-2.9,51,29.42,10.0,NE,3.5,-,N/A,,Clear,50,2012-12-03 13:53:00
5:53 AM,9.0,-2.9,59,29.43,10.0,NNE,3.5,-,N/A,,Clear,20,2012-12-03 14:53:00
6:53 AM,10.9,-5.1,49,29.44,10.0,NE,4.6,-,N/A,,Clear,50,2012-12-03 15:53:00
7:53 AM,10.9,-5.1,49,29.47,10.0,NE,6.9,-,N/A,,Clear,50,2012-12-03 16:53:00
8:53 AM,12.9,-5.1,45,29.49,10.0,NE,8.1,-,N/A,,Clear,40,2012-12-03 17:53:00
9:53 AM,12.0,-6.0,44,29.51,10.0,NE,5.8,-,N/A,,Clear,40,2012-12-03 18:53:00
10:53 AM,12.9,-5.1,45,29.52,10.0,NE,4.6,-,N/A,,Clear,40,2012-12-03 19:53:00
11:53 AM,15.1,-2.0,47,29.53,10.0,ENE,9.2,-,N/A,,Clear,60,2012-12-03 20:53:00
12:53 PM,16.0,1.0,52,29.53,10.0,NE,9.2,-,N/A,,Clear,50,2012-12-03 21:53:00
1:53 PM,16.0,-0.9,47,29.55,10.0,East,4.6,-,N/A,,Clear,100,2012-12-03 22:53:00
2:53 PM,17.1,-2.0,43,29.55,10.0,NNE,5.8,-,N/A,,Clear,30,2012-12-03 23:53:00
3:53 PM,14.0,-5.1,43,29.56,10.0,NNE,5.8,-,N/A,,Clear,30,2012-12-04 00:53:00
4:53 PM,12.0,-6.0,44,29.56,10.0,NNE,4.6,-,N/A,,Clear,20,2012-12-04 01:53:00
5:53 PM,10.9,-7.1,44,29.56,10.0,Calm,Calm,-,N/A,,Clear,0,2012-12-04 02:53:00
6:53 PM,12.0,-7.1,42,29.57,10.0,ENE,3.5,-,N/A,,Clear,60,2012-12-04 03:53:00
7:53 PM,10.9,-6.0,47,29.57,10.0,NE,5.8,-,N/A,,Mostly Cloudy,40,2012-12-04 04:53:00
8:53 PM,10.9,-7.1,44,29.56,10.0,ENE,4.6,-,N/A,,Scattered Clouds,60,2012-12-04 05:53:00
9:53 PM,12.9,-6.0,43,29.55,10.0,NE,5.8,-,N/A,,Overcast,50,2012-12-04 06:53:00
10:53 PM,14.0,-5.1,43,29.54,10.0,NE,8.1,-,N/A,,Overcast,50,2012-12-04 07:53:00
11:53 PM,14.0,-4.0,45,29.52,10.0,NE,8.1,-,N/A,,Overcast,50,2012-12-04 08:53:00